Hourly Data Report for October 02, 2017

All times are specified in Local Standard Time (LST). Add 1 hour to adjust for Daylight Saving Time where and when it is observed.

ESKASONI FIRST NATION AUTOMATIC WEATHER STATION
NOVA SCOTIA

45°55'14.000" N
60°38'49.000" W
28.00 m
8201780
71175
AEI

Download Data

Hourly Data (October 2017)
Hourly Data Report for October 2, 2017
Temp Definition
°C
Dew Point Temp Definition
°C
Rel Hum Definition
%
Wind Dir Definition
10's deg

Wind Spd Definition
km/h
Visibility Definition
km
Stn Press Definition
kPa
Hmdx Definition


Wind Chill Definition


Weather Definition


TIME
00:00 11.1 6.4 73 22 3   101.43     LegendNANA
01:00 9.9 6.8 81 28 5   101.46     LegendNANA
02:00 8.2 6.9 92 34 5   101.43     LegendNANA
03:00 8.5 7.5 94 34 8   101.40     LegendNANA
04:00 8.5 7.8 95 33 8   101.47     LegendNANA
05:00 9.3 8.2 93 35 2   101.54     LegendNANA
06:00 9.3 8.2 93 35 7   101.62     LegendNANA
07:00 10.5 9.0 90 34 8   101.69     LegendNANA
08:00 11.4 8.0 80 35 5   101.76     LegendNANA
09:00 13.5 5.5 58 33 12   101.78     LegendNANA
10:00 14.9 4.7 50 1 8   101.79     LegendNANA
11:00 14.1 5.0 54 35 11   101.80     LegendNANA
12:00 14.2 2.7 46 36 15   101.88     LegendNANA
13:00 12.9 2.1 48 35 19   101.92     LegendNANA
14:00 13.0 2.2 48 34 18   101.97     LegendNANA
15:00 13.0 2.3 48 34 17   102.05     LegendNANA
16:00 10.0 2.5 60 34 18   102.11     LegendNANA
17:00 9.0 3.0 66 35 16   102.21     LegendNANA
18:00 7.8 2.8 71 34 12   102.32     LegendNANA
19:00 7.7 3.0 72 35 15   102.41     LegendNANA
20:00 8.0 3.0 71 34 15   102.47     LegendNANA
21:00 8.3 3.1 70 36 15   102.53     LegendNANA
22:00 8.3 3.3 71 34 11   102.57     LegendNANA
23:00 8.6 3.4 70 35 13   102.58     LegendNANA

Notes on Data Quality.

Legend

  • E = Estimated
  • M = Missing
  • NA = Not Available
  • ‡ = Partner data that is not subject to review by the National Climate Archives
Date modified: